Theta_e
288 287 287 287 287 288 288 288 288 288 288 288 288 289 289 289 289 289 289 288 288 287 287 287 287 287 286 286 286 286 286 286 286 286 286 286 286 286 286 286 286 286
289 289 288 288 289 290 290 290 290 290 289 290 289 289 290 289 289 289 289 289 288 288 287 287 287 287 287 286 286 286 286 286 286 286 286 286 286 286 286 286 286 286
292 291 290 290 290 291 291 291 291 291 291 291 290 290 290 290 289 289 289 289 289 288 288 287 287 287 287 286 286 286 286 286 286 286 286 286 286 286 286 286 286 286
293 292 292 292 292 291 291 291 291 291 291 291 291 291 290 290 289 289 289 289 288 288 287 287 286 287 286 286 286 286 286 286 286 286 286 286 286 286 286 286 286 286
293 292 292 292 292 292 291 291 291 291 291 291 291 291 290 289 289 289 288 288 288 287 286 286 286 286 286 286 286 286 286 286 286 286 286 286 286 286 286 286 285 285
293 293 293 292 292 292 291 291 291 291 291 290 290 290 290 289 289 288 288 287 287 286 286 286 286 286 286 286 286 286 286 286 286 286 286 285 285 285 285 285 285 285
294 293 293 292 292 291 290 290 290 290 291 290 290 290 289 289 288 287 287 286 286 286 285 285 285 285 286 286 286 286 286 286 286 285 285 285 285 285 285 285 285 285
293 293 292 292 291 290 290 290 290 290 290 290 289 289 288 288 287 287 286 286 285 285 285 285 285 285 285 285 286 285 285 285 285 285 285 285 285 285 284 284 284 284
292 292 291 291 290 290 290 290 290 290 289 289 288 288 287 287 286 286 286 285 285 285 285 285 285 285 285 285 285 285 285 285 285 285 284 284 284 284 284 284 283 283
292 292 291 291 290 290 290 290 290 289 288 288 288 287 286 286 286 286 286 285 285 285 285 285 285 285 285 285 285 285 284 284 284 284 283 283 283 283 283 283 283 282
292 291 291 290 290 290 290 289 289 288 287 287 287 286 286 286 286 286 285 285 285 285 285 285 285 285 284 284 284 284 284 283 283 283 283 283 283 282 282 282 282 282
291 291 290 290 290 289 289 288 288 287 287 287 286 286 286 286 286 285 285 285 285 285 285 285 284 284 284 284 283 283 283 283 283 282 282 282 282 282 282 282 282 282
291 290 289 289 289 288 288 287 287 287 286 286 286 286 286 286 285 285 285 285 285 284 284 284 283 283 283 283 283 282 282 282 282 282 282 282 282 282 281 281 281 281
289 289 289 288 288 287 287 287 286 286 286 286 286 286 286 285 285 285 284 284 284 284 283 283 283 283 283 282 282 281 281 281 281 281 281 281 281 281 281 281 281 281
289 288 288 288 287 287 287 286 286 286 286 286 286 285 285 285 284 284 284 284 283 283 283 283 283 283 282 282 281 281 281 281 281 281 281 280 280 280 280 280 280 280
288 288 287 287 287 287 286 286 286 286 286 285 285 285 284 284 284 284 283 283 283 283 282 282 282 282 281 280 280 280 280 280 280 280 280 280 280 280 280 280 280 280
288 287 287 287 287 286 286 286 286 285 285 285 285 284 284 284 283 283 283 283 282 282 281 281 281 280 279 279 280 280 280 280 280 279 279 279 279 279 279 280 280 279
287 287 287 287 286 286 286 285 285 285 285 284 284 284 284 283 283 283 282 282 281 281 280 280 279 279 278 278 279 279 279 279 279 279 279 279 279 279 279 279 279 279
287 286 286 286 286 285 285 285 285 284 284 284 284 283 283 282 282 281 281 280 280 279 279 279 278 278 278 278 278 278 278 278 278 278 278 278 278 278 278 278 278 278
286 286 286 285 285 285 284 284 284 284 284 284 283 282 281 281 281 280 280 279 279 278 278 278 278 277 277 278 278 278 278 278 278 277 277 277 277 277 277 277 277 277
286 285 285 285 285 284 284 284 284 284 283 282 281 281 280 280 279 279 279 278 278 277 277 277 277 277 277 277 277 277 277 277 277 276 276 276 276 276 276 276 276 276
285 285 285 284 284 284 284 284 283 282 281 280 279 279 279 279 278 278 278 277 277 277 277 276 276 276 276 276 276 276 276 276 276 276 276 276 276 276 276 276 276 276
284 284 284 284 284 284 283 282 281 280 279 279 278 278 278 278 277 277 277 277 276 276 276 276 276 275 275 275 275 275 276 276 276 276 276 276 276 276 276 276 276 276
284 284 283 283 283 282 281 280 279 278 278 277 277 277 277 277 277 276 276 276 276 275 275 275 275 274 275 275 275 275 275 275 275 276 276 276 276 276 276 276 276 276
283 283 282 281 280 279 278 278 277 277 277 276 276 276 276 276 276 275 275 275 275 275 274 274 274 274 274 274 274 275 275 275 275 276 276 276 276 276 276 276 276 276
283 282 280 279 278 277 276 276 276 276 276 275 275 275 275 275 275 274 274 274 274 274 274 273 274 273 273 273 274 274 275 275 276 276 276 276 275 275 275 275 275 275
Wind_Speed
25 25 26 26 26 26 27 27 27 28 29 29 30 31 32 32 32 33 33 34 35 35 35 34 33 33 33 33 32 30 26 24 24 24 24 24 24 25 25 25 25 25
26 27 27 28 28 28 28 28 28 29 30 31 32 33 33 33 33 32 33 34 35 36 36 35 34 33 33 32 31 29 25 24 24 24 24 25 25 25 25 25 25 25
29 29 30 30 31 31 31 31 31 32 33 33 34 35 36 35 33 32 32 34 36 37 36 35 34 33 32 32 31 28 25 24 25 25 25 25 24 24 25 24 24 24
33 33 34 34 34 35 35 35 35 36 35 36 36 36 37 37 36 34 33 34 36 37 36 35 34 32 31 31 30 27 25 24 25 25 25 25 24 24 25 24 25 25
37 38 38 38 38 38 38 38 39 38 37 37 36 36 36 37 37 35 34 35 36 35 35 34 32 31 31 31 29 26 24 24 24 24 25 26 25 25 25 25 25 27
39 39 39 39 40 40 39 39 39 38 38 37 36 34 34 35 35 35 34 34 34 32 31 30 29 29 29 29 27 24 24 25 25 25 26 27 27 26 25 26 27 28
35 35 35 36 37 38 38 38 38 38 37 35 33 33 33 33 33 33 33 34 32 29 29 28 27 27 27 25 24 24 24 25 26 26 26 27 27 28 27 27 28 30
30 31 32 33 34 34 35 35 35 34 32 31 31 31 31 31 31 31 32 31 29 28 28 27 26 25 24 23 23 24 25 25 25 25 27 28 28 29 29 29 29 31
28 29 29 30 30 30 30 30 29 29 28 28 30 30 30 30 30 30 29 28 28 28 26 25 24 23 22 22 22 24 25 26 27 27 28 29 30 31 31 31 31 32
28 28 27 26 26 26 26 26 26 27 27 28 29 29 29 28 27 28 28 27 26 25 24 22 22 22 22 22 23 24 26 28 29 29 30 31 31 32 32 32 32 33
27 25 24 24 24 25 25 26 26 26 27 28 28 28 27 26 27 27 27 26 24 23 22 22 22 22 23 24 25 26 28 29 30 31 32 32 32 32 32 32 32 33
25 24 24 24 25 25 26 26 26 26 26 27 26 26 26 26 27 27 26 25 24 22 22 22 23 23 23 25 27 28 29 30 31 32 32 32 32 32 32 33 33 34
24 24 25 25 25 25 25 25 25 25 26 26 26 26 26 27 27 27 25 23 22 22 23 23 24 24 24 25 26 27 29 30 31 31 32 31 31 33 35 35 35 35
25 25 25 25 25 24 24 24 25 25 26 26 26 26 26 27 27 26 24 23 23 23 24 23 23 23 23 24 26 27 29 30 31 31 32 32 33 35 35 35 35 35
25 25 25 25 24 24 24 25 25 26 26 26 26 26 26 27 26 24 24 24 23 23 23 22 22 22 22 24 27 29 30 31 32 32 32 33 34 35 35 34 35 35
25 25 25 24 24 24 25 25 25 25 26 26 26 26 25 25 24 23 22 22 23 23 22 22 21 21 24 28 30 30 31 32 32 32 32 34 35 35 35 35 34 34
24 24 24 24 24 24 24 25 25 24 25 25 24 23 22 21 21 21 21 22 23 23 22 22 21 22 27 32 32 31 32 32 32 33 33 33 34 34 35 35 35 35
23 22 23 24 24 24 24 24 24 23 23 22 20 20 20 20 21 21 22 22 22 22 23 22 22 25 30 33 32 31 32 32 32 32 32 33 34 34 35 35 35 35
22 22 22 23 23 23 22 22 22 20 19 18 19 20 20 21 22 22 22 22 22 23 24 23 23 27 31 32 31 32 32 32 32 31 32 33 34 34 33 33 33 33
21 20 21 21 21 20 20 19 18 17 17 19 20 21 22 22 22 22 22 21 21 22 23 24 25 27 30 31 31 32 32 32 31 30 31 32 32 32 31 31 32 32
19 18 18 18 18 17 17 16 16 17 19 21 21 21 22 22 22 22 21 21 21 22 24 26 26 26 29 31 32 32 31 31 29 29 29 30 30 29 30 31 32 33
17 17 16 16 16 15 15 15 17 19 21 22 22 22 22 21 21 21 21 21 22 23 25 26 26 27 29 31 31 30 29 28 27 27 28 29 29 30 31 32 33 33
16 16 16 16 15 15 16 17 19 21 22 22 22 23 22 21 22 21 20 20 22 24 25 25 26 30 31 30 29 27 26 26 27 27 28 29 30 31 32 32 32 33
17 16 16 15 14 15 17 20 21 22 22 22 21 22 23 22 22 21 20 20 22 26 26 25 28 31 31 28 27 26 25 25 26 28 29 29 30 32 32 32 33 35
17 17 16 16 17 18 19 22 24 23 22 23 22 22 23 23 22 22 21 22 24 26 25 24 27 30 29 26 26 26 25 25 26 28 29 29 31 33 33 33 35 36
16 17 18 20 21 22 23 24 25 23 24 26 26 24 23 23 23 23 23 24 25 24 23 23 25 27 27 26 26 27 27 28 28 28 30 31 32 32 33 34 35 36
Wind_Direction
275 274 274 275 277 279 282 284 285 286 288 291 291 293 297 300 304 307 307 307 305 303 302 302 303 305 306 306 305 302 297 293 290 288 286 284 282 281 278 276 275 274
276 275 275 275 276 278 281 283 285 286 287 289 291 293 295 298 302 306 308 309 307 304 303 303 303 305 306 305 304 301 295 291 289 287 285 283 282 281 279 277 277 276
278 278 277 277 278 279 282 284 284 285 286 288 291 293 295 297 299 303 307 309 307 305 303 302 302 303 305 306 305 300 293 290 290 289 287 284 283 282 281 280 280 279
282 283 282 282 282 282 283 284 284 286 288 289 292 295 297 297 298 300 305 309 307 305 304 301 300 302 304 306 304 298 293 290 290 289 288 286 285 285 284 284 282 281
286 286 286 285 285 285 284 284 285 287 288 290 294 299 301 301 300 299 303 309 308 306 304 301 299 300 303 305 302 295 291 291 291 291 289 289 289 288 287 286 284 282
289 289 289 288 288 287 286 285 287 288 291 294 297 301 305 306 304 302 304 309 309 305 304 301 298 299 301 301 297 291 291 292 293 293 291 290 290 289 287 286 284 283
295 295 294 292 291 290 289 289 290 292 295 298 300 304 308 309 308 307 307 309 308 305 303 300 298 298 299 297 294 292 293 293 294 293 291 290 290 289 287 285 283 282
300 298 297 296 295 295 294 295 296 298 301 303 304 308 311 311 311 309 309 310 308 306 304 301 298 297 297 295 293 293 295 294 294 293 291 290 289 288 287 285 284 284
301 300 300 300 300 300 300 302 303 305 306 307 309 312 313 312 312 311 312 311 308 306 304 301 298 297 297 296 295 295 295 295 293 292 290 289 287 287 287 287 287 286
304 304 305 305 305 306 307 308 309 310 311 312 314 314 314 313 313 314 314 312 308 306 304 301 300 300 300 299 297 295 294 293 292 290 288 287 286 286 287 287 286 286
307 309 310 310 310 310 311 312 313 314 315 315 316 316 315 315 315 315 315 313 309 306 304 303 303 302 301 299 297 294 292 291 290 289 287 286 286 286 286 287 287 287
311 314 314 314 313 313 313 314 315 316 317 317 318 317 317 316 317 316 315 312 309 306 305 303 303 301 299 297 295 294 292 291 290 288 288 287 288 289 290 291 290 288
315 316 316 315 314 315 315 316 318 319 319 320 319 318 318 318 318 317 314 310 308 306 304 302 300 298 296 295 294 294 294 293 291 290 291 290 290 292 293 292 289 286
317 317 317 317 317 318 320 320 321 321 320 320 320 320 320 320 319 316 312 309 306 303 301 298 297 295 295 295 295 296 296 295 294 294 294 294 294 294 293 289 287 284
319 319 320 321 322 323 323 323 322 321 320 321 321 322 321 319 317 314 310 306 303 300 298 297 296 294 295 296 295 297 298 298 298 297 296 297 296 294 291 287 286 284
322 323 323 323 323 323 323 322 322 321 322 322 322 321 318 315 312 308 304 301 300 299 298 298 297 294 296 297 295 297 300 301 300 298 298 298 295 293 290 288 286 285
324 324 322 321 322 322 323 323 323 322 322 321 318 316 313 310 306 302 301 300 299 299 300 300 298 296 298 300 299 300 302 302 301 300 299 297 293 291 290 289 289 289
325 323 321 320 321 323 323 323 323 321 319 316 313 311 309 306 303 301 301 301 301 301 301 300 297 298 301 303 302 303 304 304 303 301 298 295 292 290 290 290 291 292
324 322 320 320 321 322 322 322 320 317 315 313 312 310 308 305 303 302 302 303 303 302 301 300 298 300 303 304 304 304 306 307 305 300 296 293 290 290 291 291 291 292
322 320 318 318 319 320 320 319 317 315 316 315 313 310 307 305 304 304 304 304 303 303 302 300 299 301 304 305 305 306 308 309 305 299 295 292 290 290 291 291 291 292
320 317 316 317 318 319 318 318 318 319 318 316 312 309 307 306 305 306 305 305 304 303 302 300 300 303 305 304 305 308 310 309 304 299 295 292 291 292 291 291 292 291
318 317 317 318 320 321 321 322 322 320 317 315 311 308 307 306 306 305 305 305 305 303 301 300 302 304 304 304 307 310 311 309 303 298 296 295 295 295 294 293 292 291
322 321 321 322 325 326 326 325 322 318 316 315 311 309 309 308 307 306 306 306 305 303 303 303 304 306 306 306 308 312 312 309 304 301 300 299 298 297 297 296 295 295
327 328 327 328 330 330 327 323 320 317 316 315 312 309 309 308 308 307 307 307 304 302 303 303 303 306 307 308 310 313 312 309 307 306 304 302 302 302 302 301 300 301
333 333 333 334 333 330 326 323 321 320 318 316 314 310 309 309 309 309 308 306 302 300 302 301 300 303 307 310 312 313 314 312 310 309 307 306 307 307 306 305 303 303
335 335 336 337 334 331 328 327 326 323 321 320 317 313 311 310 309 309 307 304 302 303 304 302 300 303 307 311 313 314 315 316 314 312 311 311 311 309 307 306 305 304